Location: Schommer Observatory
(40.5200°N, 74.4500°W)
Time: 06:33:42
(UTC-04:00)

ISS - Pass Details

Date: 14 October 2017
Orbit: 401 x 408 km, 51.6° (Epoch: 21 October)

Event Time Altitude Azimuth Distance (km) Brightness Sun altitude
Rises 19:26:20 0° 304° (NW) 2,325 1.0 -13.6°
Reaches altitude 10° 19:28:25 10° 302° (WNW) 1,463 -0.1 -14.0°
Maximum altitude 19:31:41 67° 220° (SW) 443 -3.6 -14.6°
Enters shadow 19:33:40 21° 141° (SE) 958 -2.3 -15.0°
